Powrót do katalogu

TITAN 34B AGENA D R/B

LostHEO
NORAD 5054·ROCKET BODY·🇺🇸 United States

Wystrzelony Mar 21, 1971 z Vandenberg Space Force Base

Loading…

Następne Przeloty

TLE

Source: Space-Track
1 05054U 71021B   26170.06813947  .00000150  00000-0  33675-3 0  9992
2 05054  63.5275  12.0485 7314730 267.4015  15.2334  2.20182676 57154

Śledź TITAN 34B AGENA D R/B w czasie rzeczywistym z AllMySat

Download on the App Store